星链-37002(STARLINK-37002)

导读

STARLINK-37002(NORAD编号68164)是美国SpaceX公司星链(Starlink)低轨卫星互联网星座的一颗卫星,属于星链第二代mini系列卫星。该卫星运行在约550公里的近地轨道,为全球提供高速宽带互联网服务。 它配备相控阵天线、激光星间链路,单链路速率可达百Gbps级别,搭载氩气离子推进器用于轨道机动与离轨,采用太阳能供电,支持动态波束调度,可提供低至25毫秒的网络时延,支持流媒体、视频通话及手机直连通信等应用,是星链全球卫星互联网组网的组成部分。

Basic Information
目录编号:
68164
目录名称:
STARLINK-37002
国际标识:
2026-049Y
轨道中心:
EARTH
卫星名称:
星链-37002
卫星全名:
星链-37002(STARLINK-37002)
卫星状态:
在轨 (已飞行175 天)
发射日期:
2026-03-13 UTC
国别 :
美国 (US)
星等 :
--
Orbit Information
数据来源 国际轨道数据
星历时间: 2026-09-04T08:30:26+0800
10小时前
查看轨道信息
半长轴: 6843.675km
偏心率: 0.0001107
轨道倾角: 97.286°
近地点辐角 94.733°
升交点赤经 267.186°
平近点角 265.404°
近地点: 464.78km
远地点: 466.296km
周期: 93.906分钟
每日圈数: 15.33447
Detailed Information
固有亮度:
5
最大亮度:
2.5
卫星平台:
Starlink V1.0
覆盖范围:
全球
运营商:
太空探索技术公司
运营商所在国:
美国
制造商(研发单位):
太空探索技术公司
制造商所在国:
美国
使用方式:
暂无
Satellite Introduction
Starlink 计划是 SpaceX 推出的全球卫星互联网项目,通过发射低轨道卫星,为全球尤其是偏远地区提供高速、低延迟的互联网服务。自 2019 年起,Starlink 已部署数千颗卫星,旨在缩小全球数字鸿沟,推动互联网普及。该项目还为军事、航空等行业提供通信支持,带来广泛经济效益。
2D Orbit Map
3D Orbit Map
Orbit Altitude Analysis Chart
Orbit Inclination Analysis Chart
Orbit Comprehensive Analysis Chart
View Comprehensive Chart
Conjunction Data List
Event ID Objects TCA Miss Dist (km) Collision Risk Probability Collision Risk Index (CRI) Action
CDM_260905-223505-083106-816421
2026-09-05T
22:35:19+0000
0.817 km
远距离
5.282903E-5 中风险 0.69
CDM_260906-042104-783706-816421
2026-09-06T
04:21:12+0000
1.700 km
极远距离
4.420891E-6 低风险 0.48
CDM_260905-084205-234506-816421
2026-09-05T
08:42:48+0000
2.805 km
极远距离
1.451526E-6 低风险 0.38
CDM_260906-140804-866906-816421
2026-09-06T
14:08:45+0000
2.758 km
极远距离
1.185229E-6 低风险 0.36
CDM_260906-052104-748606-816421
2026-09-06T
05:21:27+0000
2.565 km
极远距离
6.26206E-7 极低风险 0.31